NOAA 16 DEB, 41400

Orbit data source: Space-Track

NOAA 16 DEB, 41400 is space debris in SSO originally from a launch on Thu, 21 Sep 2000 UTC launched from the Air Force Western Test Range (AFWTR). Debris objects in space refer to the collection of defunct objects orbiting the Earth. Examples of debris include non-operational satellites, rocket bodies, and fragments generated from explosions, collisions, or faulty payload assembly.

Loading next visibility...
Identifier
41400, 2000-055KD
Orbit
SSO
Country
Flag of USUS
Related business
Manufacturer
Unknown
Mission
Spacecraft
Bus & Motor
Unknown
Mass
Unknown
Launch date (UTC)
2000-09-21 (26 years ago)
Launch vehicle
Unknown
Launch site
Air Force Western Test Range (AFWTR)
Object type
Payload
Rocket body
Debris
Shape & HBR
Unknown shape, 0.077 m
Radar Cross Section
Medium (>0.1 m² and <1 m²)

Expand to show TLE details & history
Last TLE update: 6 hours ago

TLE from 6 hours ago
0 NOAA 16 DEB
1 41400U 00055KD  26267.23479659  .00002986  00000-0  10273-2 0  9997
2 41400  98.7185   6.9280 0014006 319.3433  40.6706 14.36711415546743
Epoch: 2026-09-24T05:38Z
TLE epoch observation values (Epoch: 2026-09-24T05:38:06.425Z)
Latitude
-0.00002°
Longitude
-80.67325°
Altitude
764.733 km
Speed
7.476 km/s
True Right ascension
00h 27m 42s
True Declination
0° 00' 00"
Sunlit
Object was in full shadow at epoch
Visualization orbit readout
Latitude
Unknown
Longitude
Unknown
Altitude
Unknown
Speed
Unknown
Apparent Right ascension
Unknown
Apparent Declination
Unknown
Sunlit
N/A
Visualization observer readout
Local Sidereal Time
04:32:55
Azimuth
Unknown
Elevation
Unknown
Doppler factor
Unknown
Orbital elements
Apogee altitude
776.528 km
Perigee altitude
756.515 km
Semi-major axis
7,144.658 km
Eccentricity
0.0014
Inclination
98.7185°
RAAN
6.928°
Arg. of periapsis
319.3433°
True anomaly
40.77534°
Mean anomaly
40.6706°
Eccentric anomaly
40.72295°
Mean motion
3.59394 °/min
Orbital period
100.17 mins
BSTAR
0.0010273
Loading maneuver chart data...
Computing Atmospheric mass density...
Loading historical data...
Loading historical data...
Loading historical data...
Loading historical data...
Loading historical data...
Loading historical data...
Loading historical data...

Documentation

Showing up to 5 results
|